Simultaneous Nadir Overpasses (SNOs) Predictions

Prediction of SNOs near US between AQUA and NPP Satellite Orbit:

Table of predicted SNOs near US for the next 10.0 days since TLE Epoch: 4/23/2022
Index Date (AQUA) Time (AQUA) AQUA Lat,Lon Date (NPP) Time (NPP) NPP Lat,Lon Distance(km) Time Diff (sec)
1 04/25/2022 18:12:38 49.95, -78.61 04/25/2022 18:10:26 49.45, -81.58 221.15 132
2 04/28/2022 07:38:38 28.65, -85.72 04/28/2022 07:32:41 28.90, -87.03 131.22 357
3 04/28/2022 09:14:59 37.74,-107.91 04/28/2022 09:11:34 38.05,-109.72 162.38 205
